Weather History for Wrangell, AK

Change the Weather History Date:

Saturday, August 24, 2013

  Actual Average Record
Temperature  
Mean Temperature 56 °F -  
Max Temperature 60 °F 62 °F 73 °F (1987)
Min Temperature 53 °F 48 °F 36 °F (1970)
Degree Days  
Heating Degree Days 8    
Growing Degree Days 6 (Base 50)    
Moisture  
Dew Point 51 °F    
Average Humidity 84    
Maximum Humidity 94    
Minimum Humidity 68    
Precipitation  
Precipitation 0.01 in - - ()
Sea Level Pressure  
Sea Level Pressure 29.70 in    
Wind  
Wind Speed 3 mph (East)    
Max Wind Speed 13 mph    
Max Gust Speed 18 mph    
Visibility 10 miles    
Events      
Averages and records for this station are not official NWS values.
T = Trace of Precipitation, MM = Missing Value Source: NWS Daily Summary

Daily Weather History Graph

Daily Weather History Graph

Search for Another Location

Airport:

Trip Planner

Search our weather history database for the weather conditions in past years. The results will help you decide how hot, cold, wet, or windy it might be!

Date:

Astronomy

Aug. 24, 2013 Rise Set
Actual Time 5:37 AM AKDT 8:04 PM AKDT
Civil Twilight 4:55 AM AKDT 8:45 PM AKDT
Nautical Twilight 4:01 AM AKDT 9:39 PM AKDT
Astronomical Twilight 2:53 AM AKDT 10:46 PM AKDT
Moon 9:00 PM AKDT (8/24) 10:43 AM AKDT (8/24)
Length of Visible Light 15h 49m
Length of Day
14h 26m
Waning Gibbous, 83% of the Moon is Illuminated
Aug 24
Waning Gibbous
Aug 28
Last Quarter
Sep 5
New
Sep 12
First Quarter
Sep 19
Full

Hourly Weather History & Observations

Time (AKDT) Temp. Dew Point Humidity Pressure Visibility Wind Dir Wind Speed Gust Speed Precip Events Conditions
12:16 AM 55.4 °F 50.0 °F 82% 29.70 in 10.0 mi ESE 3.5 mph - N/A   Overcast
12:36 AM 55.4 °F 50.0 °F 82% 29.71 in 10.0 mi ESE 3.5 mph - N/A   Overcast
12:56 AM 53.6 °F 50.0 °F 88% 29.71 in 10.0 mi Calm Calm - N/A   Overcast
1:16 AM 53.6 °F 50.0 °F 88% 29.71 in 10.0 mi ESE 4.6 mph - N/A   Overcast
1:36 AM 53.6 °F 50.0 °F 88% 29.70 in 10.0 mi Calm Calm - N/A   Overcast
1:56 AM 53.6 °F 51.8 °F 94% 29.71 in 10.0 mi Calm Calm - N/A   Overcast
2:16 AM 55.4 °F 50.0 °F 82% 29.71 in 10.0 mi Calm Calm - N/A   Overcast
2:36 AM 55.4 °F 50.0 °F 82% 29.71 in 10.0 mi Calm Calm - N/A   Overcast
2:56 AM 55.4 °F 50.0 °F 82% 29.71 in 10.0 mi Calm Calm - N/A   Overcast
3:16 AM 53.6 °F 50.0 °F 88% 29.71 in 10.0 mi Calm Calm - N/A   Overcast
3:36 AM 53.6 °F 50.0 °F 88% 29.71 in 10.0 mi Calm Calm - N/A   Overcast
3:56 AM 53.6 °F 50.0 °F 88% 29.71 in 10.0 mi Calm Calm - N/A   Overcast
4:16 AM 53.6 °F 50.0 °F 88% 29.70 in 10.0 mi ESE 3.5 mph - N/A   Overcast
4:36 AM 53.6 °F 50.0 °F 88% 29.70 in 10.0 mi Calm Calm - N/A   Overcast
4:56 AM 53.6 °F 50.0 °F 88% 29.70 in 10.0 mi Calm Calm - N/A   Overcast
5:16 AM 53.6 °F 50.0 °F 88% 29.70 in 10.0 mi Calm Calm - N/A   Overcast
5:36 AM 53.6 °F 50.0 °F 88% 29.69 in 10.0 mi Calm Calm - N/A   Overcast
5:56 AM 53.6 °F 50.0 °F 88% 29.69 in 10.0 mi Calm Calm - N/A   Mostly Cloudy
6:16 AM 53.6 °F 50.0 °F 88% 29.69 in 10.0 mi Calm Calm - N/A   Mostly Cloudy
6:36 AM 53.6 °F 50.0 °F 88% 29.70 in 10.0 mi Calm Calm - N/A   Mostly Cloudy
6:56 AM 53.6 °F 50.0 °F 88% 29.70 in 10.0 mi Calm Calm - N/A   Mostly Cloudy
7:16 AM 53.6 °F 51.8 °F 94% 29.70 in 10.0 mi Calm Calm - N/A   Mostly Cloudy
7:36 AM 53.6 °F 51.8 °F 94% 29.70 in 10.0 mi ESE 3.5 mph - N/A   Mostly Cloudy
7:56 AM 53.6 °F 50.0 °F 88% 29.70 in 10.0 mi Calm Calm - N/A   Mostly Cloudy
8:16 AM 55.4 °F 51.8 °F 88% 29.70 in 10.0 mi Calm Calm - N/A   Mostly Cloudy
8:36 AM 55.4 °F 51.8 °F 88% 29.70 in 10.0 mi NNW 3.5 mph - N/A   Mostly Cloudy
8:56 AM 55.4 °F 50.0 °F 82% 29.70 in 10.0 mi Calm Calm - N/A   Mostly Cloudy
9:16 AM 55.4 °F 50.0 °F 82% 29.70 in 10.0 mi Calm Calm - N/A   Mostly Cloudy
9:36 AM 55.4 °F 51.8 °F 88% 29.70 in 10.0 mi Calm Calm - N/A   Mostly Cloudy
9:56 AM 55.4 °F 51.8 °F 88% 29.70 in 10.0 mi North 3.5 mph - N/A   Mostly Cloudy
10:16 AM 55.4 °F 51.8 °F 88% 29.70 in 10.0 mi North 3.5 mph - N/A   Mostly Cloudy
10:36 AM 55.4 °F 51.8 °F 88% 29.70 in 10.0 mi North 3.5 mph - N/A   Mostly Cloudy
10:56 AM 55.4 °F 50.0 °F 82% 29.70 in 10.0 mi NNW 3.5 mph - N/A   Mostly Cloudy
11:16 AM 55.4 °F 51.8 °F 88% 29.70 in 10.0 mi NW 3.5 mph - N/A   Mostly Cloudy
11:36 AM 57.2 °F 51.8 °F 82% 29.70 in 10.0 mi NNW 4.6 mph - N/A   Mostly Cloudy
11:56 AM 57.2 °F 51.8 °F 82% 29.70 in 10.0 mi NNW 4.6 mph - N/A   Mostly Cloudy
12:16 PM 57.2 °F 51.8 °F 82% 29.70 in 10.0 mi NNW 4.6 mph - N/A   Mostly Cloudy
12:36 PM 57.2 °F 51.8 °F 82% 29.70 in 10.0 mi NW 3.5 mph - N/A   Mostly Cloudy
12:56 PM 59.0 °F 51.8 °F 77% 29.69 in 10.0 mi Calm Calm - N/A   Mostly Cloudy
1:16 PM 60.8 °F 53.6 °F 77% 29.69 in 10.0 mi Calm Calm - N/A   Mostly Cloudy
1:36 PM 59.0 °F 53.6 °F 82% 29.69 in 10.0 mi Calm Calm - N/A   Mostly Cloudy
1:56 PM 57.2 °F 51.8 °F 82% 29.70 in 10.0 mi ESE 3.5 mph - N/A   Overcast
2:16 PM 59.0 °F 53.6 °F 82% 29.69 in 10.0 mi Calm Calm - N/A   Overcast
2:36 PM 57.2 °F 51.8 °F 82% 29.70 in 10.0 mi Calm Calm - N/A   Overcast
2:56 PM 59.0 °F 53.6 °F 82% 29.70 in 10.0 mi Calm Calm - N/A   Overcast
3:16 PM 59.0 °F 51.8 °F 77% 29.69 in 10.0 mi Calm Calm - N/A   Overcast
3:36 PM 59.0 °F 53.6 °F 82% 29.69 in 10.0 mi Calm Calm - 0.01 in   Overcast
3:56 PM 59.0 °F 53.6 °F 82% 29.69 in 10.0 mi Calm Calm - 0.01 in   Scattered Clouds
4:16 PM 60.8 °F 53.6 °F 77% 29.69 in 10.0 mi ESE 3.5 mph - N/A   Scattered Clouds
4:36 PM 59.0 °F 53.6 °F 82% 29.69 in 10.0 mi ESE 3.5 mph - N/A   Scattered Clouds
4:56 PM 59.0 °F 53.6 °F 82% 29.69 in 10.0 mi Calm Calm - N/A   Overcast
5:16 PM 57.2 °F 53.6 °F 88% 29.69 in 10.0 mi ENE 8.1 mph - N/A   Overcast
5:36 PM 57.2 °F 53.6 °F 88% 29.69 in 10.0 mi Calm Calm - N/A   Overcast
5:56 PM 59.0 °F 53.6 °F 82% 29.69 in 10.0 mi SSE 6.9 mph - N/A   Overcast
6:16 PM 59.0 °F 51.8 °F 77% 29.69 in 10.0 mi ESE 6.9 mph - N/A   Overcast
6:36 PM 57.2 °F 51.8 °F 82% 29.68 in 10.0 mi East 10.4 mph - N/A   Overcast
6:56 PM 59.0 °F 51.8 °F 77% 29.69 in 10.0 mi ESE 11.5 mph 17.3 mph N/A   Overcast
7:16 PM 60.8 °F 50.0 °F 68% 29.69 in 10.0 mi ESE 3.5 mph 18.4 mph N/A   Overcast
7:36 PM 59.0 °F 50.0 °F 72% 29.69 in 10.0 mi SSE 9.2 mph - N/A   Overcast
7:56 PM 59.0 °F 50.0 °F 72% 29.70 in 10.0 mi ESE 9.2 mph - N/A   Overcast
8:16 PM 59.0 °F 50.0 °F 72% 29.70 in 10.0 mi SE 11.5 mph - N/A   Overcast
8:36 PM 57.2 °F 51.8 °F 82% 29.70 in 10.0 mi East 12.7 mph - N/A   Overcast
8:56 PM 57.2 °F 51.8 °F 82% 29.70 in 10.0 mi East 11.5 mph - N/A   Overcast
9:16 PM 57.2 °F 50.0 °F 77% 29.70 in 10.0 mi ESE 9.2 mph - N/A   Overcast
9:36 PM 57.2 °F 51.8 °F 82% 29.70 in 10.0 mi East 10.4 mph - N/A   Overcast
9:56 PM 57.2 °F 51.8 °F 82% 29.70 in 10.0 mi ESE 8.1 mph - N/A   Mostly Cloudy
10:16 PM 55.4 °F 51.8 °F 88% 29.71 in 10.0 mi ESE 4.6 mph - N/A   Mostly Cloudy
10:36 PM 57.2 °F 51.8 °F 82% 29.70 in 10.0 mi East 8.1 mph - N/A   Mostly Cloudy
10:56 PM 57.2 °F 51.8 °F 82% 29.70 in 10.0 mi East 10.4 mph - N/A   Mostly Cloudy
11:16 PM 57.2 °F 51.8 °F 82% 29.70 in 10.0 mi ESE 9.2 mph - N/A   Overcast
11:36 PM 57.2 °F 50.0 °F 77% 29.71 in 10.0 mi SE 6.9 mph - N/A   Overcast
11:56 PM 55.4 °F 50.0 °F 82% 29.71 in 10.0 mi ESE 6.9 mph - N/A   Overcast